Location: Newark
(46.5000°N, 6.3833°E)
Time: 00:53:47
(UTC+00:00)

OTV 5 (USA 277) - Visible Passes

Search period start: 21 August 2019 00:00
Search period end: 31 August 2019 00:00
Orbit: 305 x 329 km, 54.5° (Epoch: 20 August)

Date Brightness Start Highest point End Pass type
(mag) Time Alt. Az. Time Alt. Az. Time Alt. Az.
21 Aug ? 02:25:51 25° N 02:26:34 30° NNE 02:28:58 10° E visible
21 Aug ? 03:58:29 10° WNW 04:00:52 31° SW 04:03:16 10° SSE visible
22 Aug ? 02:41:19 61° NE 02:41:19 61° NE 02:43:51 10° ESE visible
23 Aug ? 02:57:33 17° SSE 02:57:33 17° SSE 02:58:20 10° SE visible
23 Aug ? 19:16:35 10° SSE 19:17:22 11° SE 19:17:22 11° SE visible
24 Aug ? 19:29:30 10° SSW 19:31:51 26° SE 19:33:12 17° E visible
24 Aug ? 21:03:35 10° W 21:04:09 14° W 21:04:09 14° W visible
25 Aug ? 19:43:37 10° SW 19:46:18 70° SE 19:48:20 16° ENE visible
25 Aug ? 21:18:40 10° WNW 21:19:15 14° WNW 21:19:15 14° WNW visible
26 Aug ? 19:58:15 10° WSW 20:00:52 48° NNW 20:03:00 14° NE visible
26 Aug ? 21:33:50 10° NW 21:33:54 10° NW 21:33:54 10° NW visible
27 Aug ? 20:13:12 10° W 20:15:34 26° NNW 20:17:20 14° NNE visible
28 Aug ? 18:52:58 10° WSW 18:55:41 74° NNW 18:58:22 10° NE visible
28 Aug ? 20:28:20 10° WNW 20:30:21 18° NNW 20:31:28 15° NNE visible
29 Aug ? 19:07:47 10° W 19:10:19 34° NNW 19:12:50 10° NE visible
29 Aug ? 20:43:29 10° NW 20:45:12 15° N 20:45:30 15° N visible
30 Aug ? 19:22:51 10° WNW 19:25:03 22° NNW 19:27:15 10° NE visible
30 Aug ? 20:58:24 10° NW 20:59:27 14° NNW 20:59:27 14° NNW visible
